Location: B�hl
(48.8342°N, 10.6563°E)
Time: 07:25:40
(UTC+00:00)

Daily predictions for brighter satellites

Satellite Brightness Start Highest point End
(mag) Time Altitude Azimuth Time Altitude Azimuth Time Altitude Azimuth
Cosmos 1515 Rocket 4.4 19:15:15 10° NNW 19:19:37 54° W 19:23:57 10° S
Cosmos 389 Rocket 2.7 19:16:39 10° N 19:20:01 49° ENE 19:23:22 10° SSE
Cosmos 1812 3.1 19:18:11 10° N 19:21:55 45° ENE 19:25:36 10° SSE
SPOT 3 Rocket 3.6 19:16:47 10° SSE 19:21:59 76° ENE 19:27:12 10° NNW
Cosmos 1727 Rocket 4.1 19:15:37 10° N 19:22:02 85° E 19:28:24 10° S
Cosmos 2251 Rocket 3.6 19:18:38 10° SSW 19:23:54 87° ESE 19:29:14 10° NNE
Cosmos 1656 3.7 19:21:27 10° NNW 19:26:57 89° NE 19:32:31 10° SSE
Cosmos 1707 Rocket 4.1 19:27:12 10° N 19:31:21 41° ENE 19:35:26 10° SE
Cosmos 1633 4.0 19:28:10 10° SSW 19:31:32 41° WNW 19:34:55 10° N
Cosmos 220 Rocket 4.0 19:27:19 10° NNW 19:31:32 68° ENE 19:35:44 10° SSE
IRIDIUM 104 4.4 19:27:01 10° S 19:32:09 64° E 19:37:20 10° N
Resurs 01 Rocket 1.7 19:28:42 10° SSE 19:33:05 67° ENE 19:37:29 10° N
Cosmos 972 Rocket 4.2 19:28:21 10° NNW 19:33:23 69° WSW 19:38:13 10° S
Cosmos 1441 Rocket 3.3 19:35:01 10° S 19:38:42 52° E 19:42:23 10° NNE
IRIDIUM 114 4.3 19:36:06 10° S 19:41:18 76° E 19:46:32 10° N
Cosmos 614 Rocket 4.0 19:37:21 10° S 19:42:23 57° ESE 19:47:30 10° NNE
IGS 5A 4.1 19:41:07 11° SE 19:44:46 40° ENE 19:48:39 10° N
Cosmos 1900 4.4 19:40:47 10° SW 19:45:44 90° SE 19:50:49 10° NE
USA 267 3.3 19:41:09 10° ENE 19:47:36 58° SE 19:54:02 10° SW
GP-B 3.9 19:45:50 10° NNE 19:49:52 32° E 19:53:13 13° SE
IRIDIUM 103 4.4 19:45:13 10° S 19:50:26 90° ENE 19:55:42 10° N
Cosmos 1821 Rocket 4.0 19:46:34 10° S 19:52:39 74° E 19:58:52 10° NNE
COSMOS 2406 3.2 19:49:02 10° SSW 19:54:47 80° ESE 20:00:33 10° NNE
Shenzhou-11 Module 3.2 19:53:14 10° SW 19:54:56 17° S 19:55:30 16° SSE
Cosmos 921 Rocket 4.3 19:51:46 10° N 19:55:19 25° ENE 19:58:03 14° ESE
CZ-2C R/B 3.9 19:51:09 10° NNE 19:55:49 79° WNW 20:00:21 10° SSW
SL-16 R/B 3.8 19:53:15 10° N 19:57:42 23° NE 20:02:08 10° E
Cosmos 1862 Rocket 4.3 19:53:39 10° N 19:57:53 39° ENE 20:01:00 16° SE
Intercosmos 25 3.5 19:53:08 10° NNW 19:57:53 79° W 20:01:16 10° S
ERS-1 Rocket 3.8 19:56:08 14° SE 19:59:51 36° ENE 20:04:26 10° N
Lacrosse 5 3.0 19:56:14 10° NW 20:01:00 39° NNE 20:05:46 10° E
Cosmos 2369 3.7 19:57:25 10° NNW 20:03:11 88° ENE 20:08:05 15° SSE
Cosmos 1862 3.9 20:00:01 10° SSW 20:04:00 60° WNW 20:08:03 10° N
Sich 1 3.0 20:00:27 10° S 20:04:53 87° ESE 20:09:22 10° N
Cosmos 1818 3.8 20:02:31 10° NW 20:07:56 65° WSW 20:12:24 15° SSE
BREEZE-M DEB (TANK) 1.6 20:05:45 10° W 20:08:42 80° N 20:09:54 20° E
Cosmos 2082 Rocket 2.5 20:04:33 10° S 20:09:57 46° ESE 20:15:22 10° NE
Cosmos 2278 3.8 20:06:44 10° NNW 20:12:29 73° ENE 20:16:44 18° SE
Cosmos 2123 Rocket 4.0 20:06:22 10° N 20:12:36 73° E 20:18:06 14° SSE
Meteor 2-20 4.4 20:08:11 10° N 20:14:23 85° ENE 20:20:08 12° S
Spot 2 Rocket 3.5 20:11:25 14° SSE 20:15:46 82° ENE 20:20:55 10° NNW
Cosmos 1535 Rocket 4.5 20:09:43 10° S 20:15:47 65° E 20:21:50 10° NNE
Cosmos 2322 Rocket 3.7 20:15:33 10° NNW 20:20:17 26° NE 20:24:25 12° E
Meteor 1-4 Rocket 2.3 20:16:49 10° N 20:20:20 87° ENE 20:22:27 22° SSE
Cosmos 1184 Rocket 3.1 20:21:02 26° SSE 20:22:27 44° E 20:25:38 10° NNE
CARTOSAT-1 3.9 20:20:05 22° SE 20:22:36 50° ENE 20:26:48 10° N
Cosmos 1190 Rocket 3.9 20:17:28 10° SSW 20:22:43 74° ESE 20:28:02 10° NNE
CZ-2C R/B 4.3 20:18:42 10° N 20:23:19 34° WNW 20:27:57 10° SW
Terra 2.7 20:21:08 20° ESE 20:23:47 36° ENE 20:28:08 10° N
USA 234 3.3 20:18:45 18° SE 20:23:55 84° SW 20:30:29 10° NW
Cosmos 407 Rocket 3.5 20:20:20 10° SSW 20:25:40 87° WNW 20:31:00 10° NNE
Cosmos 1933 Rocket 4.4 20:24:16 23° SE 20:26:07 33° E 20:30:06 10° NNE
Cosmos 1605 Rocket 4.1 20:21:08 15° SSE 20:26:07 53° E 20:32:02 10° NNE
Cosmos 1666 Rocket 3.5 20:22:10 10° S 20:26:29 84° W 20:30:51 10° N
Cosmos 1238 Rocket 2.9 20:28:02 31° ESE 20:28:23 32° E 20:31:05 10° NNE
Okean 1 4.1 20:26:06 10° N 20:29:52 37° ENE 20:31:27 26° ESE
Meteor 1-27 Rocket 4.3 20:25:11 10° NNW 20:31:00 60° W 20:36:49 10° S
Cosmos 2360 Rocket 4.0 20:30:03 10° N 20:34:16 21° NE 20:38:29 10° E
Cosmos 1437 Rocket 3.9 20:31:01 10° N 20:34:21 27° ENE 20:35:27 24° E
CZ-4B DEB 4.3 20:35:36 34° SSE 20:36:54 74° ENE 20:40:14 10° N
SPOT 5 2.7 20:35:54 27° SE 20:38:05 61° ENE 20:42:24 10° N
USA 238 DEB 3.9 20:32:25 10° S 20:38:39 45° ESE 20:45:08 10° NE
USA 238 3.9 20:32:33 10° S 20:38:45 45° ESE 20:45:13 10° NE
Cosmos 1980 Rocket 2.3 20:37:56 10° NNW 20:43:39 77° WSW 20:47:05 25° SSE
SPOT 1/Viking Rocket 3.7 20:39:53 19° S 20:43:41 72° WSW 20:48:56 10° NNW
Cosmos 1703 Rocket 4.1 20:41:25 10° N 20:45:35 43° ENE 20:47:06 31° ESE
Cosmos 2242 Rocket 3.7 20:41:14 10° N 20:45:39 58° ENE 20:47:29 32° SE
Cosmos 1763 Rocket 4.0 20:43:22 10° NNW 20:48:34 49° ENE 20:51:08 27° ESE
SL-4 R/B 1.6 20:44:53 10° SW 20:48:45 64° SSE 20:51:35 16° ENE
Genesis I 3.3 20:45:31 10° NW 20:49:23 67° SW 20:50:44 37° SSE
BREEZE-M DEB (TANK) 2.8 20:46:36 10° W 20:49:34 84° N 20:58:15 10° E
Cosmos 405 Rocket 2.8 20:49:22 41° SE 20:50:13 51° E 20:53:50 10° NNE
Cosmos 1140 Rocket 3.8 20:46:08 10° SSW 20:51:21 70° WNW 20:56:38 10° NNE
ATLAS 5 CENTAUR R/B 4.1 20:47:34 10° WNW 20:52:09 24° WSW 20:57:13 10° SSW
Cosmos 2333 Rocket 4.5 20:50:37 10° N 20:54:03 16° NNE 20:57:29 10° ENE
USA 32 4.1 20:53:02 16° S 20:57:12 79° W 21:02:27 10° N
Cosmos 1697 Rocket 4.0 20:54:06 10° NW 20:59:05 33° WSW 21:03:04 15° SSW
Cosmos 1633 Rocket 4.0 20:55:36 10° SSW 20:59:51 47° WNW 21:04:10 10° N
Cosmos 1833 Rocket 3.6 20:55:16 10° SW 21:00:43 51° NW 21:06:14 10° NNE
Cosmos 1153 Rocket 4.4 21:03:26 26° S 21:06:57 69° E 21:13:06 10° NNE
Cosmos 1867 3.5 21:01:39 10° SW 21:07:05 87° SE 21:12:36 10° NE
Meteor 1-18 Rocket 4.1 21:01:28 10° NNW 21:07:07 88° E 21:09:50 32° SSE
CENTAUR R/B 2.9 21:04:45 29° SSE 21:07:11 41° ESE 21:13:37 10° NE
Okean 1-7 3.1 21:03:00 10° N 21:07:19 63° ENE 21:08:30 44° SE
Resurs 01 Rocket 4.2 21:07:28 10° SW 21:10:02 15° W 21:12:37 10° NW
Okean 3 4.5 21:09:24 10° N 21:13:17 32° ENE 21:13:59 30° E
FALCON 9 DEB 3.0 21:10:56 10° WSW 21:14:26 80° SSE 21:15:22 46° ENE
Cosmos 1850 Rocket 4.2 21:14:18 37° SSE 21:16:01 53° ESE 21:21:09 10° NNE
Meteor 2-4 Rocket 3.8 21:11:08 10° N 21:16:49 62° ENE 21:18:53 37° SE
Cosmos 1515 3.6 21:13:53 10° N 21:17:44 86° E 21:18:23 61° SSE
SL-27 R/B 4.2 21:19:37 21° ENE 21:19:37 21° ENE 21:21:07 10° NE
Cosmos 676 Rocket 4.4 21:15:00 10° SW 21:20:17 63° WNW 21:25:37 10° NNE
Cosmos 44 4.0 21:16:22 10° NNW 21:21:03 47° NE 21:23:08 30° E
ATLAS 5 CENTAUR R/B 2.6 21:18:50 10° NNW 21:21:22 45° NE 21:23:25 27° E
Cosmos 1470 Rocket 4.4 21:19:31 18° SW 21:22:35 48° WNW 21:26:51 10° N
SWARM C 4.4 21:19:25 10° N 21:22:46 87° E 21:22:47 87° ESE
SWARM A 4.1 21:19:30 10° N 21:22:51 84° W 21:22:57 82° SW
USA 267 3.7 21:24:14 10° NE 21:30:41 63° NNW 21:37:08 10° WSW
NOSS 3-2 (A) 3.3 21:27:24 10° SW 21:33:10 89° NW 21:39:51 10° NE
Cosmos 921 Rocket 4.0 21:29:48 10° NW 21:33:43 37° WSW 21:34:51 31° SW
ERS-1 Rocket 4.2 21:36:09 22° SW 21:38:40 35° W 21:43:15 10° NNW
NOSS 3-2 (C) 3.3 21:35:51 28° SSW 21:39:03 68° SE 21:45:35 10° NE
Cosmos 841 Rocket 3.5 21:35:23 10° NNW 21:40:36 69° ENE 21:42:00 48° SE
Cosmos 540 Rocket 3.5 21:36:52 10° NNW 21:42:03 69° ENE 21:43:22 48° SE
SL-16 R/B 2.1 21:36:50 10° NNW 21:42:33 85° WSW 21:44:17 47° SSE
Cosmos 468 Rocket 4.4 21:38:57 10° NNW 21:44:10 56° WSW 21:45:45 40° SSW
Lacrosse 5 1.7 21:39:17 10° NW 21:44:23 82° SW 21:45:31 54° SE
Cosmos 1741 Rocket 3.9 21:48:23 39° SSW 21:50:25 87° WNW 21:55:44 10° NNE
Cosmos 1570 Rocket 4.0 21:46:33 10° NNW 21:51:54 87° ENE 21:53:10 54° SSE
Tsikada Rocket 4.3 21:46:41 10° N 21:52:57 54° ENE 21:54:55 40° SE
Cosmos 2219 Rocket 3.8 21:48:39 10° NNW 21:53:31 28° NE 21:56:38 17° E
Cosmos 2208 Rocket 4.0 21:48:42 10° NNW 21:54:01 77° ENE 21:55:11 54° SE
Cosmos 2082 Rocket 3.7 21:48:58 10° WSW 21:54:11 36° NW 21:59:25 10° NNE
Cosmos 1814 Rocket 4.0 21:49:10 10° NNW 21:54:23 74° ENE 21:55:32 54° SE
Cosmos 2084 Rocket 4.3 21:59:01 38° ENE 21:59:01 38° ENE 22:01:56 10° NE
Cosmos 2237 4.3 21:53:14 10° NNW 21:58:57 69° ENE 22:00:34 46° SE
Terra 3.1 22:00:01 26° SW 22:01:34 31° W 22:05:49 10° NNW
Cosmos 2322 Rocket 2.2 21:59:13 10° NNW 22:04:54 71° WSW 22:06:13 52° S
EO 1 Del DPAF 4.3 22:02:16 10° NNE 22:04:57 35° ENE 22:04:57 35° ENE
USA 234 4.3 22:06:06 27° SSW 22:07:31 29° SW 22:13:04 10° WNW
Cosmos 2100 Rocket 4.1 22:05:35 35° SSW 22:08:18 69° W 22:14:28 10° N
Meteor 1-11 Rocket 3.7 22:09:09 55° SSE 22:10:17 71° E 22:16:01 10° NNE
Cosmos 1437 Rocket 4.3 22:07:21 10° NW 22:10:31 25° W 22:10:50 24° W
Cosmos 1242 Rocket 3.4 22:09:14 10° N 22:12:07 43° NE 22:12:07 43° NE
Cosmos 1869 Rocket 4.2 22:13:01 42° WSW 22:13:57 50° WNW 22:18:19 10° N
Cosmos 2360 Rocket 2.1 22:13:26 10° NNW 22:19:09 85° ENE 22:20:19 58° SE
COSMOS 2428 3.9 22:14:48 10° NNW 22:20:05 36° NE 22:22:36 25° E
Geosat 4.2 22:20:48 51° SW 22:21:22 54° WSW 22:26:19 10° NW
ATLAS 3B R/B 2.7 22:21:13 49° SSE 22:22:07 53° ESE 22:28:33 10° NE
Iridium 4 Rocket 3.8 22:21:45 40° WSW 22:22:26 43° W 22:26:29 10° N
Cosmos 2173 Rocket 4.4 22:21:11 32° SW 22:23:56 57° WNW 22:29:59 10° N
Cosmos 1500 4.4 22:25:10 33° W 22:25:24 34° WNW 22:28:51 10° N
CRYOSAT 2 4.3 22:21:13 10° N 22:26:07 76° W 22:26:46 64° SW
Cosmos 1980 Rocket 4.4 22:24:15 10° WNW 22:26:38 13° W 22:28:51 10° WSW
ALOS 2 2.6 22:27:44 68° ENE 22:27:46 68° ENE 22:32:09 10° N
SL-4 R/B 3.0 22:24:44 10° W 22:27:13 36° WNW 22:27:13 36° WNW
Cosmos 1725 Rocket 3.9 22:27:20 50° S 22:29:08 88° W 22:35:31 10° N
USA 238 DEB 4.4 22:23:01 10° WSW 22:29:33 53° NW 22:36:23 10° NE
USA 238 4.4 22:23:07 10° WSW 22:29:39 53° NW 22:36:30 10° NE
Nimbus 7 Rocket 4.4 22:25:32 10° NNE 22:31:21 61° ESE 22:32:15 55° SE
Cosmos 1674 Rocket 3.5 22:29:04 10° N 22:33:13 76° NE 22:33:13 76° NE
SL-08 R/B 4.4 22:32:19 50° SSW 22:34:00 80° W 22:40:08 10° N
Cosmos 1536 3.1 22:34:39 67° NNW 22:34:39 67° NNW 22:38:14 10° N
Cosmos 1666 3.4 22:37:32 50° NW 22:37:32 50° NW 22:40:44 10° N
Cosmos 1743 3.9 22:38:17 36° NE 22:38:17 36° NE 22:41:03 10° NNE
Cosmos 2333 Rocket 2.6 22:33:59 10° NNW 22:39:41 56° NE 22:41:19 42° ESE
Cosmos 1271 Rocket 3.5 22:37:46 10° N 22:40:47 45° NE 22:40:47 45° NE
Cosmos 2016 Rocket 4.3 22:39:51 39° SW 22:42:08 62° WNW 22:48:28 10° N
Cosmos 2061 Rocket 4.3 22:41:23 39° SW 22:43:33 60° WNW 22:49:41 10° N
Cosmos 2237 Rocket 4.0 22:38:58 10° NNW 22:43:37 25° NE 22:47:33 13° E
Lacrosse 4 Rocket 2.7 22:45:23 30° ENE 22:45:23 30° ENE 22:47:55 10° NE
MOS 1-B Rocket 4.3 22:39:02 10° N 22:44:38 54° WNW 22:46:44 35° SW
Cosmos 1733 Rocket 3.3 22:51:00 62° WNW 22:51:00 62° WNW 22:55:21 10° N
Meteor 2-11 Rocket 4.4 22:51:23 56° SE 22:52:24 66° E 22:58:27 10° NNE
Cosmos 1066 Rocket 4.3 22:47:15 10° NNW 22:52:56 64° W 22:53:46 56° SW
Meteor 1-23 Rocket 4.4 22:48:58 10° NNW 22:54:45 65° W 22:55:42 56° SW
Thor Agena Rocket 3.9 22:50:55 10° N 22:55:53 55° WNW 22:57:00 45° WSW
Cosmos 44 Rocket 4.1 22:51:11 10° NNW 22:55:59 47° NE 22:57:31 36° E
Cosmos 836 Rocket 4.4 22:52:20 10° NNW 22:57:34 79° ENE 22:58:03 71° ESE
CENTAUR R/B 3.3 22:51:50 11° WSW 22:57:41 55° NW 23:04:55 10° NE
Cosmos 968 Rocket 3.6 22:59:01 56° E 22:59:01 56° E 23:03:52 10° NNE
Cosmos 1975 4.0 23:02:22 35° ENE 23:02:22 35° ENE 23:05:18 10° NNE
Cosmos 44 4.4 22:57:46 10° NW 23:01:33 32° WSW 23:01:33 32° WSW
SL-24 DEB 4.2 23:00:32 10° N 23:05:18 74° E 23:05:18 74° E
Cosmos 1782 Rocket 4.3 23:10:37 44° ENE 23:10:37 44° ENE 23:14:16 10° NNE
USA 267 4.3 23:07:03 10° ENE 23:13:09 44° N 23:19:17 10° WNW
Cosmos 1378 4.4 23:09:51 10° NNW 23:12:29 37° NW 23:12:29 37° NW
Cosmos 2233 Rocket 4.2 23:14:31 47° SW 23:16:12 63° WNW 23:22:30 10° N
Cosmos 1707 4.4 23:13:00 10° NNE 23:16:13 26° ENE 23:16:13 26° ENE
Cosmos 1464 Rocket 4.2 23:15:36 49° SE 23:16:46 57° E 23:22:50 10° NNE
Cosmos 1908 Rocket 3.6 23:18:33 74° NNW 23:18:33 74° NNW 23:22:35 10° N
Cosmos 1842 3.9 23:14:29 10° N 23:17:41 54° NNE 23:17:41 54° NNE
Helios 1B rocket 4.0 23:18:59 10° NE 23:21:48 26° ENE 23:21:48 26° ENE
Cosmos 2227 Rocket 4.1 23:22:42 16° ESE 23:23:05 16° E 23:26:22 10° ENE
Meteor 1-21 4.3 23:18:30 10° N 23:24:20 73° ENE 23:25:21 59° SE
SL-16 R/B 4.2 23:22:47 10° WNW 23:25:46 15° W 23:26:08 15° WSW
Lacrosse 5 3.9 23:23:11 10° W 23:24:41 15° W 23:24:41 15° W
Cosmos 2322 3.9 23:23:49 10° NW 23:29:20 54° WSW 23:29:31 53° WSW
COSMOS 2487 4.1 23:32:14 31° NNW 23:32:14 31° NNW 23:34:39 10° N
Nadezhda 4 Rocket 4.2 23:30:07 10° N 23:36:24 65° ENE 23:38:03 48° SE
Cosmos 2219 Rocket 2.1 23:32:18 10° NNW 23:37:57 66° WSW 23:38:19 64° SW
Cosmos 783 Rocket 4.3 23:36:37 10° NNW 23:41:54 87° ENE 23:42:23 74° SSE
Cosmos 1975 Rocket 3.2 23:38:15 10° NNW 23:42:25 71° NW 23:42:25 71° NW
Cosmos 1513 Rocket 4.5 23:42:38 58° S 23:44:02 90° ESE 23:50:31 10° N
Okean 2 Rocket 3.8 23:45:22 44° E 23:45:22 44° E 23:49:30 10° NNE
Cosmos 2034 Rocket 4.1 23:43:53 53° SSE 23:45:14 67° E 23:51:30 10° NNE
Cosmos 1503 Rocket 3.9 23:45:55 73° SSW 23:46:27 88° WNW 23:51:52 10° NNE
Cosmos 2322 Rocket 4.4 23:45:57 10° WNW 23:47:53 12° W 23:48:01 12° W
Cosmos 1072 Rocket 4.4 23:46:51 60° SSW 23:48:03 82° W 23:54:13 10° N
Helios 1A 3.9 23:49:48 39° WNW 23:49:48 39° WNW 23:53:05 10° NNW
Landsat 4 4.3 23:46:10 10° NNE 23:49:12 54° NNE 23:49:12 54° NNE
SL-16 R/B 3.8 23:46:15 18° ESE 23:50:20 36° ENE 23:55:58 10° N
Cosmos 1092 Rocket 4.5 23:44:28 10° N 23:50:36 53° ENE 23:52:45 37° SE
ERBS 4.2 23:49:05 10° NW 23:51:02 27° NNW 23:51:02 27° NNW
Cosmos 1300 Rocket 4.2 23:52:28 47° E 23:52:28 47° E 23:56:22 10° NNE
CZ-2D R/B 3.9 23:49:13 10° NE 23:53:23 22° E 23:54:54 19° ESE
Cosmos 1544 4.5 23:54:38 34° NW 23:54:38 34° NW 23:57:19 10° N
SL-16 R/B 3.8 23:48:53 10° NNW 23:53:55 31° NE 23:58:55 10° ESE
Sich 1 Rocket 3.6 23:55:31 78° NNE 23:55:31 78° NNE 23:59:40 10° N
